• Join FlightAware (Why Join?)
  • Login
  • US Flag GB Flag 
00:34 EDT


 

Airport Tracker/Info


-or-


 

Live Flight TrackerFlight Track Log ✈ UAL335 ✈ 25-Apr-2013 ✈ KTPA - KEWR

Flight Track Log - Related Links

Times and Time Zones

All times are in EDT time to prevent confusion due to time zone crossing. See the UAL335 flight status page for this flight to view local times or setup timezone preferences in your user account.

Time Position Orientation Groundspeed Altitude Reporting Facility
EDT Latitude Longitude Course Direction KTS MPH feet Rate Location/Type
18:36 28.0000 -82.5333 North 138 159 800  Level Tampa TRACON
18:37 28.0167 -82.5333 360° North 158 182 1,300 1,920 Climbing Tampa TRACON
18:39 28.3103 -82.5667 North  Level FlightAware Approximate
18:39 28.1578 -82.5372 359° North 237 273 6,200  Level Jacksonville Center
18:40 28.4267 -82.5710 355° North  Level FlightAware Approximate
18:40 28.2350 -82.5439 356° North 260 299 9,500  Level Jacksonville Center
18:41 28.5428 -82.5826 355° North  Level FlightAware Approximate
18:41 28.3164 -82.5531 354° North 280 322 11,400  Level Jacksonville Center
18:42 28.6593 -82.5833 North  Level FlightAware Approximate
18:42 28.4103 -82.5597 356° North 309 356 13,400  Level Jacksonville Center
18:43 28.5147 -82.5714 354° North 331 381 15,600 1,920 Climbing Jacksonville Center
18:44 28.6169 -82.5850 353° North 352 405 17,300 1,620 Climbing Jacksonville Center
18:45 28.7131 -82.5967 354° North 369 425 18,900 1,680 Climbing Jacksonville Center
18:46 28.8217 -82.6081 355° North 381 438 20,700 1,740 Climbing Jacksonville Center
18:47 28.9303 -82.6244 352° North 391 450 22,400 1,740 Climbing Jacksonville Center
18:48 29.0408 -82.6408 353° North 391 450 24,200 1,440 Climbing Jacksonville Center
18:49 29.1536 -82.6572 353° North 396 456 25,300 1,140 Climbing Jacksonville Center
18:50 29.2683 -82.6711 354° North 402 463 26,500 1,320 Climbing Jacksonville Center
18:51 29.3853 -82.6875 353° North 413 475 28,000 1,380 Climbing Jacksonville Center
18:52 29.5189 -82.6969 356° North 422 486 29,300 1,140 Climbing Jacksonville Center
18:53 29.6400 -82.6942 North 431 496 30,300 960 Climbing Jacksonville Center
18:54 29.7589 -82.6917 North 431 496 31,300 1,020 Climbing Jacksonville Center
18:55 29.8822 -82.6939 359° North 436 502 32,400 840 Climbing Jacksonville Center
18:56 29.9992 -82.6936 360° North 423 487 33,000 240 Climbing Jacksonville Center
18:57 30.1181 -82.6883 North 423 487 32,900 -60 Descending Jacksonville Center
18:58 30.2372 -82.6858 North 423 487 32,900  Level Jacksonville Center
18:59 30.3561 -82.6856 360° North 423 487 32,900  Level Jacksonville Center
19:00 30.4750 -82.6781 North 423 487 33,000  Climbing Jacksonville Center
19:01 30.5942 -82.6464 13° North 425 489 33,000 -60 Level Jacksonville Center
19:02 30.7131 -82.5906 22° Northeast 431 496 32,900  Descending Jacksonville Center
19:03 30.8297 -82.5319 23° Northeast 448 516 33,000  Climbing Jacksonville Center
19:04 30.9486 -82.4736 23° Northeast 453 521 33,000 -60 Level Jacksonville Center
19:05 31.0425 -82.4269 23° Northeast 453 521 32,900  Descending Jacksonville Center
19:06 31.1675 -82.3656 23° Northeast 453 521 33,000  Climbing Jacksonville Center
19:07 31.2861 -82.3092 22° Northeast 453 521 33,000 -60 Level Jacksonville Center
19:08 31.4028 -82.2547 22° Northeast 453 521 32,900  Descending Jacksonville Center
19:09 31.5217 -82.1931 24° Northeast 458 527 33,000  Climbing Jacksonville Center
19:10 31.6506 -82.1286 23° Northeast 453 521 33,000  Level Jacksonville Center
19:11 31.7672 -82.0714 23° Northeast 453 521 33,000  Level Jacksonville Center
19:12 31.8753 -82.0192 22° Northeast 460 529 33,000  Level Jacksonville Center
19:13 32.0064 -81.9542 23° Northeast 460 529 33,000  Level Jacksonville Center
19:14 32.1231 -81.8992 22° Northeast 461 531 33,000  Level Jacksonville Center
19:15 32.2311 -81.8489 21° North 454 522 33,000  Level Jacksonville Center
19:16 32.3622 -81.7858 22° Northeast 454 522 33,000  Level Jacksonville Center
19:17 32.4806 -81.7278 22° Northeast 454 522 33,000  Level Jacksonville Center
19:18 32.5822 -81.6597 29° Northeast 449 517 33,000  Level Jacksonville Center
19:19 32.6797 -81.5844 33° Northeast 461 531 33,000  Level Jacksonville Center
19:20 32.8017 -81.4889 33° Northeast 472 543 33,000 -60 Level Jacksonville Center
19:21 32.9136 -81.4056 32° Northeast 472 543 32,900 -60 Descending Jacksonville Center
19:22 33.0231 -81.3194 33° Northeast 477 549 32,900  Level Jacksonville Center
19:23 33.1367 -81.2331 32° Northeast 477 549 32,900  Level Jacksonville Center
19:24 33.2503 -81.1439 33° Northeast 477 549 32,900  Level Jacksonville Center
19:25 33.3619 -81.0547 34° Northeast 477 549 32,900  Level Jacksonville Center
19:26 33.4711 -80.9678 34° Northeast 477 549 32,900  Level Jacksonville Center
19:27 33.5867 -80.8781 33° Northeast 477 549 33,000  Climbing Jacksonville Center
19:28 33.6978 -80.7906 33° Northeast 477 549 33,000 -60 Level Jacksonville Center
19:29 33.8092 -80.7031 33° Northeast 477 549 32,900 -60 Descending Jacksonville Center
19:30 33.9161 -80.6153 34° Northeast 477 549 32,900  Level Jacksonville Center
19:32 34.1469 -80.4297 34° Northeast 460 529 33,000  Climbing Washington Center
19:33 34.2503 -80.3478 33° Northeast 453 521 33,000  Level Washington Center
19:34 34.3603 -80.2561 35° Northeast 464 534 33,000  Level Washington Center
19:35 34.4636 -80.1736 33° Northeast 453 521 33,000  Level Washington Center
19:36 34.5736 -80.0842 34° Northeast 460 529 33,000  Level Washington Center
19:37 34.6942 -79.9847 34° Northeast 465 535 33,000  Level Washington Center
19:38 34.8014 -79.8994 33° Northeast 460 529 33,000  Level Washington Center
19:39 34.9047 -79.8136 34° Northeast 455 524 33,000  Level Washington Center
19:40 35.0100 -79.7281 34° Northeast 455 524 33,000  Level Washington Center
19:41 35.1150 -79.6444 33° Northeast 455 524 33,000  Level Washington Center
19:42 35.2222 -79.5583 33° Northeast 455 524 33,000  Level Washington Center
19:43 35.3356 -79.4772 30° Northeast 455 524 33,000  Level Washington Center
19:44 35.4508 -79.3964 30° Northeast 462 532 33,000  Level Washington Center
19:45 35.5642 -79.3122 31° Northeast 467 537 33,000  Level Washington Center
19:46 35.6772 -79.2306 30° Northeast 472 543 33,000  Level Washington Center
19:47 35.7881 -79.1486 31° Northeast 472 543 33,000  Level Washington Center
19:48 35.9033 -79.0614 31° Northeast 472 543 33,000  Level Washington Center
19:49 36.0186 -78.9767 31° Northeast 477 549 33,000  Level Washington Center
19:50 36.1336 -78.8942 30° Northeast 477 549 33,000  Level Washington Center
19:51 36.2506 -78.8064 31° Northeast 482 555 33,000  Level Washington Center
19:52 36.3656 -78.7208 31° Northeast 482 555 33,000  Level Washington Center
19:53 36.4825 -78.6325 31° Northeast 482 555 33,000  Level Washington Center
19:54 36.5761 -78.5611 31° Northeast 482 555 33,000  Level Washington Center
19:55 36.7122 -78.4575 31° Northeast 477 549 33,000  Level Washington Center
19:56 36.8292 -78.3683 31° Northeast 482 555 33,000  Level Washington Center
19:57 36.9436 -78.2817 31° Northeast 482 555 33,000  Level Washington Center
19:58 37.0500 -78.1969 32° Northeast 489 563 33,000  Level Washington Center
19:59 37.1772 -78.1019 31° Northeast 489 563 33,000  Level Washington Center
20:00 37.2936 -78.0119 32° Northeast 489 563 33,000  Level Washington Center
20:01 37.4081 -77.9214 32° Northeast 489 563 33,000  Level Washington Center
20:02 37.5267 -77.8308 31° Northeast 489 563 33,000  Level Washington Center
20:03 37.6392 -77.7317 35° Northeast 489 563 33,000  Level Washington Center
20:04 37.7514 -77.6272 36° Northeast 495 570 33,000  Level Washington Center
20:05 37.8614 -77.5278 36° Northeast 495 570 33,000  Level Washington Center
20:06 37.9736 -77.4253 36° Northeast 495 570 33,000 -180 Level Washington Center
20:07 38.0731 -77.3353 35° Northeast 495 570 32,700 -660 Descending Washington Center
20:08 38.1767 -77.2372 37° Northeast 484 557 31,700 -960 Descending Washington Center
20:09 38.2947 -77.1314 35° Northeast 471 542 30,800 -900 Descending Washington Center
20:10 38.3814 -77.0483 37° Northeast 451 519 29,900 -960 Descending Washington Center
20:11 38.4761 -76.9575 37° Northeast 436 502 28,900 -960 Descending Washington Center
20:12 38.5731 -76.8717 35° Northeast 431 496 28,000 -960 Descending Washington Center
20:13 38.6761 -76.7725 37° Northeast 441 507 27,000 -540 Descending Washington Center
20:14 38.7753 -76.6647 40° Northeast 448 516 27,000  Level Washington Center
20:15 38.8700 -76.5542 42° Northeast 453 521 27,000  Level Washington Center
20:16 38.9667 -76.4433 42° Northeast 463 533 27,000  Level Washington Center
20:17 39.0633 -76.3322 42° Northeast 463 533 27,000  Level Washington Center
20:18 39.1597 -76.2153 43° Northeast 463 533 27,000  Level Washington Center
20:19 39.2603 -76.1036 41° Northeast 468 539 27,000 -720 Level Washington Center
20:20 39.3567 -75.9942 41° Northeast 468 539 25,600 -1,560 Descending Washington Center
20:21 39.4550 -75.8792 42° Northeast 468 539 23,900 -1,680 Descending Washington Center
20:22 39.5447 -75.7692 43° Northeast 456 525 22,300 -1,560 Descending Washington Center
20:23 39.6344 -75.6617 43° Northeast 445 512 20,800 -1,560 Descending Washington Center
20:24 39.7219 -75.5592 42° Northeast 430 495 19,200 -1,500 Descending Washington Center
20:25 39.8072 -75.4564 43° Northeast 418 481 17,800 -1,560 Descending Washington Center
20:26 39.8864 -75.3589 43° Northeast 406 467 16,100 -1,740 Descending Washington Center
20:27 39.9653 -75.2639 43° Northeast 393 452 14,400 -1,620 Descending Washington Center
20:28 40.0400 -75.1742 43° Northeast 381 438 12,900 -1,500 Descending Washington Center
20:30 40.1667 -75.0167 44° Northeast 310 357 10,300 -1,320 Descending New York TRACON
20:31 40.2167 -74.9500 46° Northeast 300 345 9,300 -1,140 Descending New York TRACON
20:32 40.2833 -74.8667 44° Northeast 295 339 8,100 -660 Descending New York TRACON
20:33 40.3333 -74.8000 45° Northeast 294 338 8,000 -900 Descending New York TRACON
20:34 40.3833 -74.7167 52° Northeast 288 331 6,500 -1,020 Descending New York TRACON
20:35 40.4500 -74.6667 30° Northeast 259 298 6,000 -300 Descending New York TRACON
20:36 40.5167 -74.6500 11° North 231 266 6,000  Level New York TRACON
20:37 40.5667 -74.6333 14° North 234 269 6,000  Level New York TRACON
20:38 40.6500 -74.6167 North 232 267 6,000  Level New York TRACON
20:39 40.7000 -74.6000 14° North 232 267 6,000  Level New York TRACON
20:40 40.7667 -74.5833 11° North 230 265 6,000  Level New York TRACON
20:41 40.8333 -74.5667 11° North 230 265 6,000  Level New York TRACON
20:42 40.8833 -74.5333 27° Northeast 230 265 6,000  Level New York TRACON
20:43 40.9500 -74.5000 21° North 228 262 6,000 -480 Level New York TRACON
20:44 41.0000 -74.4667 27° Northeast 235 270 5,100 -540 Descending New York TRACON
20:45 41.0500 -74.4000 45° Northeast 233 268 5,000 -60 Descending New York TRACON
20:46 41.0333 -74.3167 105° East 230 265 5,000 -480 Level New York TRACON
20:47 41.0167 -74.2333 105° East 225 259 4,100 -540 Descending New York TRACON
20:48 40.9833 -74.1667 124° Southeast 223 257 4,000 -120 Descending New York TRACON
20:49 40.9333 -74.1333 153° Southeast 202 232 3,900 -420 Descending New York TRACON
20:50 40.8833 -74.1000 153° Southeast 200 230 3,200 -540 Descending New York TRACON
20:51 40.8333 -74.0833 166° South 193 222 2,900 -600 Descending New York TRACON
20:52 40.7833 -74.1000 194° South 176 203 2,100 -900 Descending New York TRACON
20:53 40.7500 -74.1333 217° Southwest 150 173 1,200 -840 Descending New York TRACON
20:54 40.7167 -74.1500 201° Southwest 137 158 500 -720 Descending New York TRACON